LZ1BAB-WX Weather Reports


time (UTC)temp
F
wind
direction
speed
knots
gust
knots
rain 1hr
in
rain 24hr
in
rain mn
in
humidity
%
barometer
mb
20260507162146 67 231 0.0 4.3 0.00 0.00 0.00 69 1016.6
20260507161946 67 252 1.7 4.3 0.00 0.00 0.00 69 1016.4
20260507161746 66 246 1.7 4.3 0.00 0.00 0.00 70 1016.7
20260507161545 66 298 1.7 4.3 0.00 0.00 0.00 70 1016.5
20260507161346 66 264 0.9 3.5 0.00 0.00 0.00 71 1016.5
20260507161146 66 189 0.0 3.5 0.00 0.00 0.00 71 1016.8
20260507160946 66 198 1.7 3.5 0.00 0.00 0.00 71 1016.5
20260507160746 67 178 2.6 3.5 0.00 0.00 0.00 70 1016.5
20260507160545 67 229 1.7 3.5 0.00 0.00 0.00 70 1016.6
20260507160345 67 230 0.9 3.5 0.00 0.00 0.00 70 1016.5
20260507160145 67 224 0.9 3.5 0.00 0.00 0.00 70 1016.6
20260507155945 67 210 0.9 3.5 0.00 0.00 0.00 71 1016.6
20260507155745 67 192 0.9 3.5 0.00 0.00 0.00 70 1016.6
20260507155546 67 230 0.9 3.5 0.00 0.00 0.00 70 1016.7
20260507155346 67 278 1.7 3.5 0.00 0.00 0.00 70 1016.7
20260507155146 67 244 0.0 2.6 0.00 0.00 0.00 69 1016.5
20260507154947 67 238 1.7 2.6 0.00 0.00 0.00 69 1016.5
20260507154745 67 199 1.7 2.6 0.00 0.00 0.00 69 1016.4
20260507154545 67 213 0.9 2.6 0.00 0.00 0.00 68 1016.5
20260507154345 67 229 1.7 2.6 0.00 0.00 0.00 68 1016.6
20260507154145 67 216 0.9 2.6 0.00 0.00 0.00 68 1016.4
20260507153945 67 201 0.9 3.5 0.00 0.00 0.00 67 1016.5
20260507153745 67 184 1.7 3.5 0.00 0.00 0.00 68 1016.6
20260507153533 67 204 1.7 3.5 0.00 0.00 0.00 67 1016.6
20260507153333 67 162 1.7 3.5 0.00 0.00 0.00 67 1016.5
20260507153133 67 233 1.7 3.5 0.00 0.00 0.00 66 1016.6
20260507152933 67 214 1.7 3.5 0.00 0.00 0.00 65 1016.5
20260507152733 67 226 0.9 3.5 0.00 0.00 0.00 66 1016.6
20260507152533 67 229 1.7 3.5 0.00 0.00 0.00 66 1016.7
20260507152333 67 222 0.9 3.5 0.00 0.00 0.00 65 1016.5
20260507152133 67 227 1.7 3.5 0.00 0.00 0.00 65 1016.7
20260507151933 67 199 1.7 3.5 0.00 0.00 0.00 65 1016.6
20260507151733 68 203 0.9 3.5 0.00 0.00 0.00 65 1016.4
20260507151533 68 254 1.7 3.5 0.00 0.00 0.00 64 1016.6
20260507151333 68 230 1.7 2.6 0.00 0.00 0.00 64 1016.6
20260507151133 68 187 1.7 2.6 0.00 0.00 0.00 64 1016.6
20260507150933 68 238 0.9 3.5 0.00 0.00 0.00 65 1016.6
20260507150733 68 194 1.7 3.5 0.00 0.00 0.00 64 1016.6
20260507150533 68 191 0.9 3.5 0.00 0.00 0.00 64 1016.7
20260507150334 68 190 0.0 3.5 0.00 0.00 0.00 64 1016.6
20260507150134 68 191 1.7 3.5 0.00 0.00 0.00 63 1016.8
20260507145933 68 209 1.7 3.5 0.00 0.00 0.00 63 1016.6
20260507145733 68 233 0.9 3.5 0.00 0.00 0.00 63 1016.8
20260507145533 68 235 1.7 4.3 0.00 0.00 0.00 62 1016.6
20260507145333 68 209 0.9 4.3 0.00 0.00 0.00 63 1016.8
20260507145133 68 211 0.9 4.3 0.00 0.00 0.00 63 1017.1
20260507144933 68 214 2.6 4.3 0.00 0.00 0.00 62 1016.6
20260507144733 68 252 1.7 4.3 0.00 0.00 0.00 62 1016.8
20260507144534 68 211 0.9 4.3 0.00 0.00 0.00 62 1016.7
20260507144333 68 269 0.0 4.3 0.00 0.00 0.00 62 1016.7
20260507144133 68 284 2.6 4.3 0.00 0.00 0.00 61 1016.8
20260507143933 68 195 1.7 7.0 0.00 0.00 0.00 61 1016.5
20260507143733 68 241 2.6 7.0 0.00 0.00 0.00 61 1016.7
20260507143533 69 235 2.6 7.0 0.00 0.00 0.00 61 1017.0
20260507143333 69 252 4.3 7.0 0.00 0.00 0.00 61 1016.5
20260507143133 69 255 1.7 7.0 0.00 0.00 0.00 61 1016.8
20260507142933 69 243 1.7 5.2 0.00 0.00 0.00 60 1017.0
20260507142733 69 265 1.7 5.2 0.00 0.00 0.00 59 1016.6
20260507142533 69 237 1.7 5.2 0.00 0.00 0.00 61 1016.7
20260507142333 69 241 3.5 6.1 0.00 0.00 0.00 60 1016.7
20260507142135 69 292 2.6 6.1 0.00 0.00 0.00 60 1017.0
20260507141934 69 279 1.7 6.1 0.00 0.00 0.00 60 1017.0
20260507141733 69 203 2.6 7.0 0.00 0.00 0.00 61 1016.7
20260507141533 69 252 3.5 7.0 0.00 0.00 0.00 61 1016.8
20260507141333 69 264 1.7 7.0 0.00 0.00 0.00 60 1016.6
20260507141134 69 225 5.2 7.0 0.00 0.00 0.00 60 1016.8
20260507140933 69 234 2.6 7.0 0.00 0.00 0.00 60 1017.0
20260507140733 69 237 4.3 7.0 0.00 0.00 0.00 59 1016.8
20260507140533 69 251 5.2 7.8 0.00 0.00 0.00 58 1016.6
20260507140333 69 220 4.3 7.8 0.00 0.00 0.00 58 1016.8
20260507140133 69 230 3.5 7.8 0.00 0.00 0.00 59 1016.7
20260507135933 69 229 1.7 7.8 0.00 0.00 0.00 59 1017.1
20260507135733 69 246 3.5 8.7 0.00 0.00 0.00 60 1016.7
20260507135533 69 212 1.7 8.7 0.00 0.00 0.00 61 1016.8
20260507135333 69 229 0.9 8.7 0.00 0.00 0.00 61 1016.6
20260507135133 69 233 2.6 8.7 0.00 0.00 0.00 62 1016.7
20260507134934 69 233 4.3 8.7 0.00 0.00 0.00 61 1016.6
20260507134734 69 252 0.9 7.8 0.00 0.00 0.00 61 1016.5
20260507134534 69 234 1.7 8.7 0.00 0.00 0.00 61 1016.6
20260507134334 70 274 0.9 8.7 0.00 0.00 0.00 61 1016.8
20260507134134 70 276 1.7 8.7 0.00 0.00 0.00 60 1016.5
20260507133935 70 235 4.3 8.7 0.00 0.00 0.00 59 1016.6
20260507133739 70 268 2.6 8.7 0.00 0.00 0.00 59 1016.7
20260507133534 70 287 1.7 8.7 0.00 0.00 0.00 58 1016.6
20260507133334 71 274 5.2 8.7 0.00 0.00 0.00 59 1016.7
20260507133134 71 275 3.5 8.7 0.00 0.00 0.00 59 1016.4
20260507132934 71 285 2.6 8.7 0.00 0.00 0.00 58 1016.4
20260507132734 71 202 3.5 8.7 0.00 0.00 0.00 59 1016.6
20260507132534 71 239 0.9 9.6 0.00 0.00 0.00 59 1016.4
20260507132334 72 274 2.6 9.6 0.00 0.00 0.00 57 1016.5
20260507132134 72 230 5.2 9.6 0.00 0.00 0.00 58 1016.5
20260507131933 72 255 1.7 9.6 0.00 0.00 0.00 58 1016.4
20260507131734 72 236 3.5 9.6 0.00 0.00 0.00 58 1016.4
20260507131533 73 221 6.1 8.7 0.00 0.00 0.00 57 1016.5
20260507131334 73 217 4.3 9.6 0.00 0.00 0.00 56 1016.5
20260507131134 73 253 1.7 9.6 0.00 0.00 0.00 56 1016.5
20260507130933 73 276 2.6 9.6 0.00 0.00 0.00 58 1016.5
20260507130734 74 221 5.2 9.6 0.00 0.00 0.00 58 1016.5
20260507130533 74 232 2.6 9.6 0.00 0.00 0.00 58 1016.5
20260507130333 74 218 3.5 7.8 0.00 0.00 0.00 58 1016.4
20260507130133 75 212 5.2 7.8 0.00 0.00 0.00 57 1016.4
20260507125933 76 222 4.3 7.0 0.00 0.00 0.00 57 1016.4
20260507125734 76 188 3.5 6.1 0.00 0.00 0.00 55 1016.4
20260507125533 76 208 3.5 6.1 0.00 0.00 0.00 55 1016.4
20260507125333 77 193 3.5 6.1 0.00 0.00 0.00 53 1016.5
20260507125133 78 183 3.5 6.1 0.00 0.00 0.00 51 1016.4
20260507124933 79 178 1.7 3.5 0.00 0.00 0.00 49 1016.5
20260507124733 79 213 0.0 3.5 0.00 0.00 0.00 47 1016.3
20260507124533 79 209 0.9 3.5 0.00 0.00 0.00 48 1016.2
20260507124333 79 297 0.0 3.5 0.00 0.00 0.00 46 1016.4
20260507124133 79 150 0.9 3.5 0.00 0.00 0.00 49 1016.6
20260507123933 79 14 1.7 3.5 0.00 0.00 0.00 47 1016.4
20260507123733 79 324 0.9 3.5 0.00 0.00 0.00 48 1016.5
20260507123521 79 133 1.7 3.5 0.00 0.00 0.00 49 1016.6
20260507123322 79 178 0.9 2.6 0.00 0.00 0.00 48 1016.5
20260507123121 79 224 1.7 2.6 0.00 0.00 0.00 46 1016.6
20260507122921 79 30 1.7 3.5 0.00 0.00 0.00 47 1016.7
20260507122722 78 344 0.9 3.5 0.00 0.00 0.00 47 1016.5
20260507122521 79 105 0.0 3.5 0.00 0.00 0.00 47 1016.5
20260507122321 79 281 0.0 3.5 0.00 0.00 0.00 47 1016.6
20260507122121 79 325 0.0 3.5 0.00 0.00 0.00 47 1016.7
20260507121921 79 357 1.7 4.3 0.00 0.00 0.00 45 1016.7
20260507121721 80 278 0.9 4.3 0.00 0.00 0.00 46 1016.6
20260507121521 80 134 1.7 5.2 0.00 0.00 0.00 46 1016.8
20260507121322 79 350 1.7 5.2 0.00 0.00 0.00 45 1016.5
20260507121122 80 173 1.7 5.2 0.00 0.00 0.00 44 1016.6
20260507120921 81 349 0.9 5.2 0.00 0.00 0.00 42 1016.5
20260507120721 81 181 1.7 5.2 0.00 0.00 0.00 44 1016.5
20260507120521 81 126 1.7 4.3 0.00 0.00 0.00 45 1016.5
20260507120321 81 120 1.7 3.5 0.00 0.00 0.00 43 1016.4
20260507120121 81 225 1.7 4.3 0.00 0.00 0.00 44 1016.5
20260507115921 81 200 1.7 4.3 0.00 0.00 0.00 43 1016.4
20260507115721 80 72 2.6 4.3 0.00 0.00 0.00 44 1016.7
20260507115521 80 218 0.0 4.3 0.00 0.00 0.00 43 1016.5
20260507115322 80 11 2.6 5.2 0.00 0.00 0.00 43 1016.5
20260507115121 81 109 0.9 5.2 0.00 0.00 0.00 44 1016.7
20260507114921 80 262 0.0 5.2 0.00 0.00 0.00 45 1016.7
20260507114721 80 163 1.7 5.2 0.00 0.00 0.00 43 1016.7
20260507114521 80 145 0.0 5.2 0.00 0.00 0.00 44 1016.7
20260507114321 80 144 4.3 4.3 0.00 0.00 0.00 44 1016.7
20260507114121 80 212 0.9 3.5 0.00 0.00 0.00 42 1016.5
20260507113921 80 340 1.7 3.5 0.00 0.00 0.00 44 1016.6
20260507113721 79 223 1.7 4.3 0.00 0.00 0.00 47 1017.0
20260507113522 79 332 0.9 4.3 0.00 0.00 0.00 45 1016.8
20260507113321 79 114 0.9 4.3 0.00 0.00 0.00 45 1016.8
20260507113121 78 59 1.7 4.3 0.00 0.00 0.00 46 1016.8
20260507112922 78 41 1.7 4.3 0.00 0.00 0.00 46 1016.8
20260507112721 78 317 0.0 3.5 0.00 0.00 0.00 46 1017.0
20260507112521 78 224 0.9 3.5 0.00 0.00 0.00 47 1017.0
20260507112321 78 357 2.6 3.5 0.00 0.00 0.00 47 1016.8
20260507112121 77 23 0.0 3.5 0.00 0.00 0.00 47 1016.6
20260507111922 77 242 0.0 3.5 0.00 0.00 0.00 48 1017.0
20260507111722 77 151 1.7 5.2 0.00 0.00 0.00 48 1016.8
20260507111521 77 326 0.0 5.2 0.00 0.00 0.00 47 1016.8
20260507111322 77 7 1.7 5.2 0.00 0.00 0.00 46 1017.1
20260507111121 77 9 1.7 5.2 0.00 0.00 0.00 47 1017.1
20260507110922 77 330 2.6 5.2 0.00 0.00 0.00 46 1016.8
20260507110721 78 119 0.0 5.2 0.00 0.00 0.00 46 1016.8
20260507110521 77 286 1.7 4.3 0.00 0.00 0.00 47 1017.0
20260507110321 77 6 0.9 4.3 0.00 0.00 0.00 45 1017.0
20260507110121 77 27 1.7 4.3 0.00 0.00 0.00 47 1016.8
20260507105921 77 34 1.7 4.3 0.00 0.00 0.00 47 1016.7
20260507105721 77 193 2.6 3.5 0.00 0.00 0.00 47 1017.0
20260507105521 77 82 0.0 3.5 0.00 0.00 0.00 47 1017.1
20260507105322 78 19 0.0 2.6 0.00 0.00 0.00 45 1016.8
20260507105121 78 331 1.7 2.6 0.00 0.00 0.00 46 1016.7
20260507104921 78 342 0.9 2.6 0.00 0.00 0.00 46 1017.2
20260507104722 78 222 1.7 3.5 0.00 0.00 0.00 47 1017.0
20260507104521 77 243 2.6 3.5 0.00 0.00 0.00 47 1016.8
20260507104321 77 338 2.6 3.5 0.00 0.00 0.00 47 1017.1
20260507104121 77 14 1.7 3.5 0.00 0.00 0.00 47 1016.8
20260507103921 77 328 0.0 3.5 0.00 0.00 0.00 48 1016.7
20260507103721 77 123 1.7 5.2 0.00 0.00 0.00 49 1017.1
20260507103521 76 294 1.7 5.2 0.00 0.00 0.00 50 1016.8
20260507103321 75 127 0.0 5.2 0.00 0.00 0.00 50 1017.0
20260507103121 75 21 0.9 5.2 0.00 0.00 0.00 50 1017.0
20260507102921 76 357 1.7 5.2 0.00 0.00 0.00 50 1016.8
20260507102721 76 254 0.0 4.3 0.00 0.00 0.00 47 1017.1
20260507102522 76 356 0.0 4.3 0.00 0.00 0.00 50 1017.0
20260507102322 77 352 4.3 4.3 0.00 0.00 0.00 50 1017.2
20260507102122 77 151 1.7 4.3 0.00 0.00 0.00 51 1017.1
20260507101921 77 183 0.9 4.3 0.00 0.00 0.00 48 1017.3
20260507101721 77 149 1.7 4.3 0.00 0.00 0.00 50 1017.4
20260507101522 76 130 0.0 4.3 0.00 0.00 0.00 50 1017.1
20260507101321 76 137 1.7 4.3 0.00 0.00 0.00 49 1017.2
20260507101121 76 204 2.6 4.3 0.00 0.00 0.00 49 1017.4
20260507100921 76 144 3.5 4.3 0.00 0.00 0.00 50 1017.3
20260507100721 76 220 3.5 4.3 0.00 0.00 0.00 48 1017.2
20260507100523 75 196 0.9 4.3 0.00 0.00 0.00 49 1017.2
20260507100322 76 159 1.7 4.3 0.00 0.00 0.00 49 1017.4
20260507100122 75 156 1.7 4.3 0.00 0.00 0.00 50 1017.6
20260507095922 75 186 1.7 4.3 0.00 0.00 0.00 49 1017.3
20260507095722 76 183 1.7 4.3 0.00 0.00 0.00 49 1017.3
20260507095521 75 180 0.9 3.5 0.00 0.00 0.00 50 1017.4
20260507095322 75 200 2.6 3.5 0.00 0.00 0.00 51 1017.4
20260507095122 75 192 2.6 3.5 0.00 0.00 0.00 51 1017.5
20260507094922 75 189 0.0 4.3 0.00 0.00 0.00 51 1017.5
20260507094722 75 161 2.6 4.3 0.00 0.00 0.00 51 1017.4
20260507094509 75 322 0.9 4.3 0.00 0.00 0.00 49 1017.5
20260507094310 75 272 0.9 4.3 0.00 0.00 0.00 53 1017.5
20260507094109 75 147 4.3 4.3 0.00 0.00 0.00 49 1017.5
20260507093909 75 227 0.0 3.5 0.00 0.00 0.00 51 1017.6
20260507093709 75 127 0.0 3.5 0.00 0.00 0.00 50 1017.6
20260507093509 74 183 1.7 3.5 0.00 0.00 0.00 53 1017.6
20260507093309 74 132 0.9 3.5 0.00 0.00 0.00 50 1017.6
20260507093110 74 214 1.7 3.5 0.00 0.00 0.00 52 1017.6
20260507092910 74 130 0.0 3.5 0.00 0.00 0.00 51 1017.7
20260507092710 74 143 1.7 4.3 0.00 0.00 0.00 51 1017.8
20260507092509 74 170 1.7 4.3 0.00 0.00 0.00 53 1017.6
20260507092309 73 242 0.0 4.3 0.00 0.00 0.00 52 1017.9
20260507092109 73 104 0.0 4.3 0.00 0.00 0.00 52 1017.6
20260507091910 73 273 0.9 4.3 0.00 0.00 0.00 55 1017.7
20260507091709 73 188 1.7 4.3 0.00 0.00 0.00 53 1017.6
20260507091509 73 154 1.7 4.3 0.00 0.00 0.00 53 1017.7
20260507091309 73 199 3.5 4.3 0.00 0.00 0.00 53 1017.8
20260507091109 73 351 1.7 4.3 0.00 0.00 0.00 53 1017.7
20260507090909 73 218 0.0 4.3 0.00 0.00 0.00 55 1017.6
20260507090709 73 140 3.5 4.3 0.00 0.00 0.00 54 1017.8
20260507090508 73 349 2.6 4.3 0.00 0.00 0.00 55 1017.6
20260507090310 73 315 0.9 3.5 0.00 0.00 0.00 54 1017.5
20260507090109 73 48 3.5 3.5 0.00 0.00 0.00 53 1017.6
20260507085909 73 165 0.0 3.5 0.00 0.00 0.00 54 1017.8
20260507085710 73 144 0.0 3.5 0.00 0.00 0.00 54 1017.8
20260507085509 73 358 0.9 3.5 0.00 0.00 0.00 54 1017.7
20260507085309 73 177 0.9 3.5 0.00 0.00 0.00 54 1017.7
20260507085109 73 33 0.0 3.5 0.00 0.00 0.00 54 1017.6
20260507084910 73 208 0.0 2.6 0.00 0.00 0.00 56 1017.6
20260507084709 72 126 1.7 3.5 0.00 0.00 0.00 55 1017.8
20260507084510 72 156 1.7 3.5 0.00 0.00 0.00 55 1017.6
20260507084309 72 213 1.7 3.5 0.00 0.00 0.00 54 1017.7
20260507084108 72 329 0.9 3.5 0.00 0.00 0.00 54 1017.6
20260507083909 72 179 2.6 3.5 0.00 0.00 0.00 56 1017.7
20260507083708 72 161 1.7 3.5 0.00 0.00 0.00 55 1017.8
20260507083508 72 281 0.9 4.3 0.00 0.00 0.00 54 1017.8
20260507083308 71 171 0.9 4.3 0.00 0.00 0.00 55 1017.8
20260507083108 70 147 0.0 4.3 0.00 0.00 0.00 56 1017.8
20260507082908 70 202 0.9 4.3 0.00 0.00 0.00 57 1018.0
20260507082708 71 188 1.7 4.3 0.00 0.00 0.00 57 1018.0
20260507082508 71 222 1.7 3.5 0.00 0.00 0.00 59 1018.0
20260507082308 70 214 0.0 3.5 0.00 0.00 0.00 56 1018.0
20260507082108 71 214 1.7 3.5 0.00 0.00 0.00 57 1018.1
20260507081908 71 175 1.7 1.7 0.00 0.00 0.00 57 1017.8
20260507081708 71 326 0.0 2.6 0.00 0.00 0.00 56 1018.1
20260507081523 71 164 0.0 2.6 0.00 0.00 0.00 57 1017.8
20260507081309 70 200 0.0 2.6 0.00 0.00 0.00 58 1017.9
20260507081108 70 224 0.0 2.6 0.00 0.00 0.00 58 1018.0
20260507080908 69 148 0.0 3.5 0.00 0.00 0.00 58 1017.8
20260507080708 69 359 0.9 3.5 0.00 0.00 0.00 58 1017.8
20260507080508 69 211 0.0 3.5 0.00 0.00 0.00 59 1017.9
20260507080308 69 133 0.9 3.5 0.00 0.00 0.00 59 1017.6
20260507075908 69 142 1.7 4.3 0.00 0.00 0.00 59 1017.5
20260507075708 68 167 0.9 4.3 0.00 0.00 0.00 61 1017.7
20260507075508 68 215 2.6 4.3 0.00 0.00 0.00 62 1017.8
20260507075309 68 246 1.7 4.3 0.00 0.00 0.00 62 1017.7
20260507075109 68 294 0.0 3.5 0.00 0.00 0.00 60 1017.7
20260507074909 69 157 2.6 3.5 0.00 0.00 0.00 59 1017.7
20260507074708 69 333 0.0 2.6 0.00 0.00 0.00 59 1017.8
20260507074509 69 56 0.9 3.5 0.00 0.00 0.00 59 1017.6
20260507074308 69 34 0.0 3.5 0.00 0.00 0.00 60 1017.8
20260507074108 68 129 0.9 3.5 0.00 0.00 0.00 62 1017.9
20260507073908 67 202 1.7 3.5 0.00 0.00 0.00 63 1017.8
20260507073708 67 123 0.9 3.5 0.00 0.00 0.00 61 1017.7
20260507073508 68 150 3.5 3.5 0.00 0.00 0.00 61 1017.7
20260507073310 68 161 0.0 3.5 0.00 0.00 0.00 60 1017.8
20260507073109 68 82 0.0 3.5 0.00 0.00 0.00 62 1017.8
20260507072909 68 13 1.7 2.6 0.00 0.00 0.00 60 1017.9
20260507072709 68 89 0.0 3.5 0.00 0.00 0.00 60 1017.9
20260507072509 67 244 0.0 4.3 0.00 0.00 0.00 61 1017.6
20260507072308 67 89 0.0 4.3 0.00 0.00 0.00 62 1017.8
20260507072109 67 164 0.0 4.3 0.00 0.00 0.00 61 1017.9
20260507071909 67 213 0.0 4.3 0.00 0.00 0.00 62 1017.7
20260507071709 68 168 0.9 4.3 0.00 0.00 0.00 60 1018.0
20260507071508 68 134 0.0 2.6 0.00 0.00 0.00 61 1017.8
20260507071308 67 220 0.9 2.6 0.00 0.00 0.00 61 1017.9
20260507071108 66 185 0.9 2.6 0.00 0.00 0.00 63 1017.9
20260507070908 65 4 0.0 2.6 0.00 0.00 0.00 63 1017.9
20260507070708 66 37 2.6 2.6 0.00 0.00 0.00 62 1017.9
20260507070508 66 63 1.7 2.6 0.00 0.00 0.00 63 1017.9
20260507070308 66 147 2.6 2.6 0.00 0.00 0.00 63 1017.8
20260507070108 66 159 1.7 2.6 0.00 0.00 0.00 63 1018.1
20260507065909 65 7 0.9 1.7 0.00 0.00 0.00 63 1018.0
20260507065708 65 202 0.0 2.6 0.00 0.00 0.00 64 1018.0
20260507065508 65 57 0.9 2.6 0.00 0.00 0.00 63 1018.0
20260507065308 65 121 0.9 2.6 0.00 0.00 0.00 64 1018.0
20260507065110 64 105 1.7 2.6 0.00 0.00 0.00 64 1018.0
20260507064909 65 176 1.7 2.6 0.00 0.00 0.00 65 1017.9
20260507064708 64 65 0.9 2.6 0.00 0.00 0.00 66 1018.0
20260507064508 65 141 0.0 2.6 0.00 0.00 0.00 65 1018.0
20260507064308 64 151 1.7 2.6 0.00 0.00 0.00 66 1018.1
20260507064108 64 205 0.0 2.6 0.00 0.00 0.00 68 1018.0
20260507063908 64 187 1.7 2.6 0.00 0.00 0.00 65 1018.0
20260507063708 64 165 1.7 2.6 0.00 0.00 0.00 65 1018.0
20260507063508 64 359 0.9 2.6 0.00 0.00 0.00 65 1018.1
20260507063308 63 139 0.0 2.6 0.00 0.00 0.00 66 1018.3
20260507063108 63 132 1.7 3.5 0.00 0.00 0.00 67 1018.1
20260507062908 63 3 0.9 3.5 0.00 0.00 0.00 67 1018.1
20260507062708 63 132 0.0 3.5 0.00 0.00 0.00 67 1018.3
20260507062508 62 122 0.0 3.5 0.00 0.00 0.00 70 1017.9
20260507062308 62 168 1.7 3.5 0.00 0.00 0.00 69 1018.1
20260507062108 62 161 1.7 2.6 0.00 0.00 0.00 68 1018.1
20260507061908 63 139 2.6 2.6 0.00 0.00 0.00 68 1017.9
20260507061708 62 14 0.0 2.6 0.00 0.00 0.00 68 1017.9
20260507061308 62 1 0.9 2.6 0.00 0.00 0.00 68 1018.0
20260507061108 63 94 0.0 2.6 0.00 0.00 0.00 67 1017.8
20260507060910 62 123 2.6 2.6 0.00 0.00 0.00 68 1018.1
20260507060708 62 121 0.0 2.6 0.00 0.00 0.00 69 1017.9
20260507060508 61 152 0.9 2.6 0.00 0.00 0.00 70 1018.0
20260507060309 60 40 1.7 2.6 0.00 0.00 0.00 71 1017.9
20260507060109 60 69 0.9 2.6 0.00 0.00 0.00 72 1017.9
20260507055909 59 135 0.0 2.6 0.00 0.00 0.00 75 1017.8
20260507055709 59 136 2.6 3.5 0.00 0.00 0.00 74 1018.0
20260507055509 58 178 1.7 3.5 0.00 0.00 0.00 75 1017.9
20260507055309 59 172 1.7 3.5 0.00 0.00 0.00 74 1018.0
20260507055108 59 163 1.7 3.5 0.00 0.00 0.00 75 1017.9
20260507054908 58 129 0.9 3.5 0.00 0.00 0.00 75 1018.1
20260507054709 58 131 1.7 2.6 0.00 0.00 0.00 75 1018.0
20260507054508 58 123 0.9 2.6 0.00 0.00 0.00 75 1018.1
20260507054308 58 159 2.6 2.6 0.00 0.00 0.00 76 1017.9
20260507054108 58 142 1.7 2.6 0.00 0.00 0.00 77 1018.1
20260507053909 58 199 0.9 1.7 0.00 0.00 0.00 77 1018.0
20260507053709 58 180 0.9 1.7 0.00 0.00 0.00 77 1018.0
20260507053509 58 169 0.0 1.7 0.00 0.00 0.00 76 1018.0
20260507053309 57 220 1.7 1.7 0.00 0.00 0.00 76 1017.9
20260507053109 57 142 0.0 1.7 0.00 0.00 0.00 77 1018.1
20260507052909 56 300 1.7 1.7 0.00 0.00 0.00 77 1018.0
20260507052709 56 304 0.0 1.7 0.00 0.00 0.00 77 1017.9
20260507052508 56 242 0.0 1.7 0.00 0.00 0.00 79 1017.9
20260507052308 56 217 0.0 1.7 0.00 0.00 0.00 78 1018.0
20260507052108 56 258 0.9 1.7 0.00 0.00 0.00 79 1018.0
20260507051909 56 142 0.0 1.7 0.00 0.00 0.00 79 1017.9
20260507051711 56 159 0.0 1.7 0.00 0.00 0.00 78 1017.9
20260507051508 56 143 0.0 1.7 0.00 0.00 0.00 78 1018.1
20260507051308 56 191 0.0 1.7 0.00 0.00 0.00 79 1018.0
20260507051108 56 158 0.0 1.7 0.00 0.00 0.00 79 1018.0
20260507050908 55 68 0.0 1.7 0.00 0.00 0.00 78 1017.8
20260507050708 55 143 0.0 1.7 0.00 0.00 0.00 80 1017.9
20260507050508 55 155 0.0 1.7 0.00 0.00 0.00 79 1018.0
20260507050311 53 114 0.9 1.7 0.00 0.00 0.00 83 1017.9
20260507050108 53 135 0.0 1.7 0.00 0.00 0.00 84 1017.9
20260507045908 52 119 0.0 1.7 0.00 0.00 0.00 84 1017.9
20260507045708 51 133 0.0 1.7 0.00 0.00 0.00 86 1017.9
20260507045508 51 189 1.7 1.7 0.00 0.00 0.00 85 1017.8
20260507045308 51 130 0.0 1.7 0.00 0.00 0.00 85 1017.7
20260507045108 51 128 0.0 1.7 0.00 0.00 0.00 86 1017.9
20260507044908 50 93 0.0 1.7 0.00 0.00 0.00 87 1017.7
20260507044708 50 134 0.0 1.7 0.00 0.00 0.00 88 1017.9
20260507044308 50 205 0.0 1.7 0.00 0.00 0.00 86 1017.8
20260507044108 51 139 0.0 1.7 0.00 0.00 0.00 86 1017.8
20260507043908 50 113 0.0 1.7 0.00 0.00 0.00 86 1017.6
20260507043708 50 101 0.9 1.7 0.00 0.00 0.00 86 1017.6
20260507043508 50 59 0.0 1.7 0.00 0.00 0.00 87 1017.5
20260507043309 49 108 0.9 1.7 0.00 0.00 0.00 87 1017.7
20260507043109 49 71 0.0 1.7 0.00 0.00 0.00 88 1017.7
20260507042909 49 133 0.0 1.7 0.00 0.00 0.00 88 1017.8
20260507042709 49 115 1.7 1.7 0.00 0.00 0.00 89 1017.9
20260507042508 48 127 0.9 1.7 0.00 0.00 0.00 91 1017.8
20260507042308 47 68 0.9 1.7 0.00 0.00 0.00 92 1017.6
20260507042108 47 300 0.0 1.7 0.00 0.00 0.00 93 1017.7
20260507041908 47 340 0.0 1.7 0.00 0.00 0.00 94 1017.6
20260507041708 46 290 0.9 1.7 0.00 0.00 0.00 95 1017.6
20260507041508 46 355 0.0 2.6 0.00 0.00 0.00 95 1017.5
20260507041308 46 340 0.9 2.6 0.00 0.00 0.00 96 1017.6
20260507041109 45 320 0.0 2.6 0.00 0.00 0.00 96 1017.6
20260507040909 45 20 1.7 2.6 0.00 0.00 0.00 96 1017.4
20260507040709 45 35 0.9 2.6 0.00 0.00 0.00 97 1017.7
20260507040509 44 39 0.0 1.7 0.00 0.00 0.00 97 1017.6
20260507040310 44 38 0.0 1.7 0.00 0.00 0.00 97 1017.7
20260507040108 44 31 0.0 1.7 0.00 0.00 0.00 97 1017.5
20260507035908 44 50 0.0 1.7 0.00 0.00 0.00 97 1017.5
20260507035708 44 33 0.0 1.7 0.00 0.00 0.00 97 1017.4
20260507035508 44 30 0.0 1.7 0.00 0.00 0.00 97 1017.5
20260507035308 44 25 0.0 1.7 0.00 0.00 0.00 97 1017.6
20260507035108 44 20 0.9 1.7 0.00 0.00 0.00 97 1017.6
20260507034908 44 17 0.9 1.7 0.00 0.00 0.00 97 1017.5
20260507034708 44 13 0.9 1.7 0.00 0.00 0.00 97 1017.5
20260507034508 43 358 0.9 1.7 0.00 0.00 0.00 97 1017.5
20260507034308 43 359 0.9 1.7 0.00 0.00 0.00 97 1017.5
20260507034108 43 22 0.0 1.7 0.00 0.00 0.00 97 1017.5
20260507033908 43 5 0.9 1.7 0.00 0.00 0.00 97 1017.7
20260507033708 43 2 0.0 1.7 0.00 0.00 0.00 97 1017.5
20260507033508 43 22 0.9 1.7 0.00 0.00 0.00 97 1017.6
20260507033308 43 22 0.9 1.7 0.00 0.00 0.00 97 1017.4
20260507033108 43 2 0.0 1.7 0.00 0.00 0.00 97 1017.7
20260507032908 43 23 1.7 1.7 0.00 0.00 0.00 97 1017.5
20260507032708 43 18 0.0 1.7 0.00 0.00 0.00 97 1017.5
20260507032508 43 322 0.9 1.7 0.00 0.00 0.00 97 1017.5
20260507032309 43 47 0.0 1.7 0.00 0.00 0.00 96 1017.4
20260507032110 43 135 0.0 1.7 0.00 0.00 0.00 97 1017.4
20260507031909 43 340 0.0 1.7 0.00 0.00 0.00 97 1017.3
20260507031709 43 2 0.9 1.7 0.00 0.00 0.00 97 1017.4
20260507031509 43 7 1.7 1.7 0.00 0.00 0.00 97 1017.4
20260507031309 43 40 1.7 2.6 0.00 0.00 0.00 97 1017.3
20260507031109 43 7 0.0 2.6 0.00 0.00 0.00 97 1017.3
20260507030909 43 2 0.0 2.6 0.00 0.00 0.00 97 1017.3
20260507030709 43 9 0.0 2.6 0.00 0.00 0.00 97 1017.5
20260507030508 43 31 0.9 2.6 0.00 0.00 0.00 97 1017.6
20260507030308 43 30 1.7 2.6 0.00 0.00 0.00 97 1017.4
20260507030109 43 33 1.7 2.6 0.00 0.00 0.00 97 1017.4
20260507025908 43 21 1.7 2.6 0.00 0.00 0.00 97 1017.5
20260507025709 43 61 0.9 2.6 0.00 0.00 0.00 97 1017.3
20260507025508 43 22 1.7 2.6 0.00 0.00 0.00 97 1017.3
20260507025308 43 46 1.7 1.7 0.00 0.00 0.00 96 1017.4
20260507025108 43 29 0.9 1.7 0.00 0.00 0.00 96 1017.2
20260507024908 43 36 0.0 1.7 0.00 0.00 0.00 96 1017.5
20260507024708 43 31 0.0 2.6 0.00 0.00 0.00 96 1017.2
20260507024508 43 30 0.0 2.6 0.00 0.00 0.00 96 1017.3
20260507024308 43 19 0.0 2.6 0.00 0.00 0.00 96 1017.2
20260507024108 43 38 0.0 2.6 0.00 0.00 0.00 96 1017.3
20260507023909 43 39 1.7 2.6 0.00 0.00 0.00 96 1017.1
20260507023708 43 35 0.0 1.7 0.00 0.00 0.00 96 1017.2
20260507023508 43 46 0.9 1.7 0.00 0.00 0.00 96 1017.2
20260507023308 44 18 0.0 1.7 0.00 0.00 0.00 96 1017.0
20260507023108 44 33 0.9 1.7 0.00 0.00 0.00 96 1017.2
20260507022908 44 25 0.9 1.7 0.00 0.00 0.00 95 1017.1
20260507022708 44 3 0.0 1.7 0.00 0.00 0.00 95 1017.0
20260507022308 44 9 0.0 1.7 0.00 0.00 0.00 95 1017.2
20260507022108 44 48 0.9 1.7 0.00 0.00 0.00 95 1017.3
20260507021909 44 37 1.7 1.7 0.00 0.00 0.00 96 1017.1
20260507021708 44 29 0.0 1.7 0.00 0.00 0.00 96 1017.2
20260507021508 44 33 0.9 2.6 0.00 0.00 0.00 96 1017.3
20260507021308 45 20 0.0 2.6 0.00 0.00 0.00 96 1017.2
20260507021108 44 22 1.7 2.6 0.00 0.00 0.00 96 1017.3
20260507020908 45 19 0.0 2.6 0.00 0.00 0.00 96 1017.3
20260507020708 45 17 0.9 2.6 0.00 0.00 0.00 96 1017.2
20260507020507 45 21 1.7 2.6 0.00 0.00 0.00 96 1017.2
20260507020309 44 14 1.7 2.6 0.00 0.00 0.00 96 1017.1
20260507020108 44 347 0.0 2.6 0.00 0.00 0.00 97 1017.3
20260507015908 44 340 0.9 2.6 0.00 0.00 0.00 97 1017.2
20260507015710 44 358 0.0 1.7 0.00 0.00 0.00 97 1017.1
20260507015508 44 330 1.7 2.6 0.00 0.00 0.00 97 1017.2
20260507015308 44 17 0.0 2.6 0.00 0.00 0.00 97 1017.2
20260507015109 44 357 0.0 2.6 0.00 0.00 0.00 97 1017.1
20260507014908 44 5 0.0 2.6 0.00 0.00 0.00 97 1017.2
20260507014708 44 336 0.0 2.6 0.00 0.00 0.00 97 1017.1
20260507014508 44 7 0.9 1.7 0.00 0.00 0.00 97 1017.2
20260507014309 44 354 0.9 1.7 0.00 0.00 0.00 97 1017.1
20260507014108 44 334 1.7 1.7 0.00 0.00 0.00 97 1017.2
20260507013908 44 7 0.9 1.7 0.00 0.00 0.00 97 1017.3
20260507013708 44 3 0.0 1.7 0.00 0.00 0.00 97 1017.1
20260507013508 44 8 0.0 1.7 0.00 0.00 0.00 97 1017.3
20260507013308 44 331 0.0 1.7 0.00 0.00 0.00 97 1017.2
20260507013109 44 24 0.9 1.7 0.00 0.00 0.00 97 1017.1
20260507012908 44 21 0.0 2.6 0.00 0.00 0.00 97 1017.3
20260507012708 44 55 0.9 2.6 0.00 0.00 0.00 97 1017.1
20260507012509 44 284 0.0 2.6 0.00 0.00 0.00 97 1017.2
20260507012308 44 356 0.0 2.6 0.00 0.00 0.00 97 1017.0
20260507012108 44 28 0.9 2.6 0.00 0.00 0.00 97 1017.1
20260507011908 44 19 1.7 1.7 0.00 0.00 0.00 97 1017.3
20260507011708 44 343 1.7 2.6 0.00 0.00 0.00 97 1017.1
20260507011509 44 357 0.0 2.6 0.00 0.00 0.00 97 1017.1
20260507011309 44 333 0.9 2.6 0.00 0.00 0.00 97 1016.8
20260507011108 44 359 0.0 2.6 0.00 0.00 0.00 97 1016.8
20260507010909 44 0 0.9 2.6 0.00 0.00 0.00 96 1016.8
20260507010709 44 31 0.9 2.6 0.00 0.00 0.00 96 1017.2
20260507010508 44 13 1.7 2.6 0.00 0.00 0.00 96 1017.1
20260507010309 44 338 0.0 2.6 0.00 0.00 0.00 96 1016.8
20260507010108 44 351 0.9 1.7 0.00 0.00 0.00 96 1016.8
20260507005908 44 10 0.0 1.7 0.00 0.00 0.00 96 1017.0
20260507005708 44 7 0.9 1.7 0.00 0.00 0.00 96 1017.0
20260507005508 44 355 1.7 1.7 0.00 0.00 0.00 96 1016.8
20260507005308 45 1 0.9 1.7 0.00 0.00 0.00 96 1017.2
20260507005108 45 1 0.0 1.7 0.00 0.00 0.00 96 1017.1
20260507004912 45 11 0.0 1.7 0.00 0.00 0.00 96 1017.1
20260507004708 45 10 0.0 1.7 0.00 0.00 0.00 96 1016.8
20260507004508 45 16 0.0 1.7 0.00 0.00 0.00 95 1016.8
20260507004309 45 11 0.9 1.7 0.00 0.00 0.00 95 1017.0
20260507004108 45 353 0.0 1.7 0.00 0.00 0.00 95 1016.8
20260507003909 45 6 0.0 1.7 0.00 0.00 0.00 95 1016.7
20260507003709 45 9 0.9 1.7 0.00 0.00 0.00 95 1016.8
20260507003508 45 10 1.7 1.7 0.00 0.00 0.00 95 1016.7
20260507003309 45 31 0.0 1.7 0.00 0.00 0.00 96 1016.8
20260507003108 45 2 0.0 1.7 0.00 0.00 0.00 96 1016.7
20260507002909 45 11 0.0 1.7 0.00 0.00 0.00 96 1016.8
20260507002709 45 2 1.7 1.7 0.00 0.00 0.00 96 1016.7
20260507002508 45 13 1.7 1.7 0.00 0.00 0.00 96 1017.1
20260507002308 45 359 0.9 1.7 0.00 0.00 0.00 96 1016.7
20260507002108 45 11 0.9 1.7 0.00 0.00 0.00 96 1016.7
20260507001908 45 7 0.9 1.7 0.00 0.00 0.00 96 1016.8
20260507001708 45 19 0.9 1.7 0.00 0.00 0.00 96 1016.8
20260507001508 45 355 0.0 1.7 0.00 0.00 0.00 96 1017.0
20260507001308 45 333 1.7 1.7 0.00 0.00 0.00 96 1017.0
20260507001109 46 318 0.0 1.7 0.00 0.00 0.00 96 1017.0
20260507000908 46 3 1.7 1.7 0.00 0.00 0.00 96 1017.0
20260507000708 46 40 0.0 1.7 0.00 0.00 0.00 95 1016.8
20260507000508 46 17 0.9 1.7 0.00 0.00 0.00 95 1016.8
20260507000308 46 35 0.0 1.7 0.00 0.00 0.00 95 1017.1
20260507000109 46 60 1.7 1.7 0.00 0.00 0.00 95 1017.0
20260506235908 46 13 0.9 1.7 0.00 0.00 0.00 95 1017.1
20260506235806 46 25 0.0 1.7 0.00 0.00 0.00 95 1017.2
20260506235713 46 25 0.0 1.7 0.00 0.00 0.00 95 1017.2
20260506235508 46 7 0.0 1.7 0.00 0.00 0.00 95 1017.0
20260506235308 46 30 0.9 1.7 0.00 0.00 0.00 95 1017.0
20260506235109 46 45 0.9 1.7 0.00 0.00 0.00 95 1017.0
20260506234908 46 355 0.0 1.7 0.00 0.00 0.00 95 1017.0
20260506234709 46 7 0.0 1.7 0.00 0.00 0.00 95 1017.1
20260506234508 46 11 1.7 1.7 0.00 0.00 0.00 94 1017.1
20260506234308 46 356 0.9 1.7 0.00 0.00 0.00 94 1016.8
20260506234109 47 350 0.0 1.7 0.00 0.00 0.00 94 1017.1
20260506233908 47 30 0.0 1.7 0.00 0.00 0.00 94 1017.1
20260506233708 47 7 0.9 1.7 0.00 0.00 0.00 94 1017.2
20260506233509 47 335 0.0 1.7 0.00 0.00 0.00 94 1017.2
20260506233309 47 16 0.0 1.7 0.00 0.00 0.00 94 1017.1
20260506233109 47 329 0.0 1.7 0.00 0.00 0.00 93 1017.0
20260506232909 47 31 0.9 2.6 0.00 0.00 0.00 93 1017.2
20260506232709 47 126 0.0 2.6 0.00 0.00 0.00 93 1017.1
20260506232508 48 16 0.9 2.6 0.00 0.00 0.00 92 1017.3
20260506232309 48 328 0.0 2.6 0.00 0.00 0.00 92 1017.2
20260506232108 48 329 1.7 2.6 0.00 0.00 0.00 92 1017.2
20260506231908 48 7 0.0 1.7 0.00 0.00 0.00 92 1017.1
20260506231708 48 35 0.0 1.7 0.00 0.00 0.00 92 1017.2
20260506231508 48 27 1.7 2.6 0.00 0.00 0.00 92 1017.2
20260506231310 48 332 0.0 2.6 0.00 0.00 0.00 92 1017.3
20260506231109 48 337 1.7 2.6 0.00 0.00 0.00 93 1017.2
20260506230910 48 332 0.0 2.6 0.00 0.00 0.00 93 1017.1
20260506230709 48 341 1.7 2.6 0.00 0.00 0.00 93 1017.2
20260506230509 48 46 0.9 1.7 0.00 0.00 0.00 93 1017.3
20260506230308 48 357 0.0 1.7 0.00 0.00 0.00 93 1017.0
20260506230107 48 319 0.9 1.7 0.00 0.00 0.00 94 1017.3
20260506225908 48 336 1.7 1.7 0.00 0.00 0.00 94 1017.3
20260506225708 48 328 0.0 1.7 0.00 0.00 0.00 94 1017.2
20260506225507 48 0 0.0 1.7 0.00 0.00 0.00 94 1017.2
20260506225307 48 335 0.0 1.7 0.00 0.00 0.00 94 1017.2
20260506225107 48 16 0.0 1.7 0.00 0.00 0.00 94 1017.4
20260506224907 48 19 0.0 1.7 0.00 0.00 0.00 94 1017.3
20260506224708 48 14 0.9 1.7 0.00 0.00 0.00 94 1017.4
20260506224508 48 14 1.7 1.7 0.00 0.00 0.00 94 1017.3
20260506224308 48 332 0.0 1.7 0.00 0.00 0.00 93 1017.3
20260506224107 48 328 0.0 1.7 0.00 0.00 0.00 93 1017.2
20260506223907 48 27 0.0 1.7 0.00 0.00 0.00 93 1017.3
20260506223707 48 9 0.0 1.7 0.00 0.00 0.00 93 1017.3
20260506223507 48 355 0.0 1.7 0.00 0.00 0.00 93 1017.5
20260506223307 48 350 0.0 1.7 0.00 0.00 0.00 93 1017.5
20260506223108 48 33 0.9 2.6 0.00 0.00 0.00 93 1017.3
20260506222907 48 34 0.0 2.6 0.00 0.00 0.00 93 1017.3
20260506222707 48 32 0.0 2.6 0.00 0.00 0.00 92 1017.5
20260506222507 49 14 0.0 2.6 0.00 0.00 0.00 92 1017.5
20260506222308 49 323 0.9 2.6 0.00 0.00 0.00 92 1017.3
20260506222107 49 254 0.0 1.7 0.00 0.00 0.00 92 1017.4
20260506221907 49 323 0.9 1.7 0.00 0.00 0.00 92 1017.5
20260506221708 49 21 1.7 1.7 0.00 0.00 0.00 91 1017.5
20260506221507 49 2 0.9 1.7 0.00 0.00 0.00 91 1017.5
20260506221307 49 0 0.9 1.7 0.00 0.00 0.00 90 1017.4
20260506221107 49 9 0.9 1.7 0.00 0.00 0.00 90 1017.5
20260506220907 49 66 0.9 1.7 0.00 0.00 0.00 90 1017.5
20260506220707 49 319 0.0 1.7 0.00 0.00 0.00 89 1017.5
20260506220508 49 37 0.0 1.7 0.00 0.00 0.00 89 1017.4
20260506220308 50 178 0.0 1.7 0.00 0.00 0.00 88 1017.5
20260506220107 50 103 0.0 2.6 0.00 0.00 0.00 87 1017.5
20260506215907 51 161 0.0 2.6 0.00 0.00 0.00 86 1017.5
20260506215708 51 120 0.9 2.6 0.00 0.00 0.00 85 1017.4
20260506215507 52 338 0.0 2.6 0.00 0.00 0.00 85 1017.5
20260506215307 52 56 0.9 2.6 0.00 0.00 0.00 85 1017.5
20260506215107 51 50 0.0 1.7 0.00 0.00 0.00 85 1017.6
20260506214907 52 95 1.7 1.7 0.00 0.00 0.00 84 1017.4
20260506214707 52 32 0.9 1.7 0.00 0.00 0.00 84 1017.4
20260506214507 52 77 0.0 1.7 0.00 0.00 0.00 83 1017.5
20260506214308 52 99 0.9 2.6 0.00 0.00 0.00 83 1017.5
20260506214108 52 345 0.0 2.6 0.00 0.00 0.00 83 1017.5
20260506213907 52 315 0.0 2.6 0.00 0.00 0.00 83 1017.4
20260506213707 52 354 0.0 2.6 0.00 0.00 0.00 83 1017.7
20260506213508 52 79 0.9 2.6 0.00 0.00 0.00 83 1017.7
20260506213307 52 49 0.0 1.7 0.00 0.00 0.00 84 1017.6
20260506213107 52 5 0.0 1.7 0.00 0.00 0.00 84 1017.7
20260506212907 52 12 0.0 1.7 0.00 0.00 0.00 84 1017.5
20260506212707 52 31 0.0 1.7 0.00 0.00 0.00 84 1017.6
20260506212507 52 44 0.0 1.7 0.00 0.00 0.00 84 1017.6
20260506212309 52 308 0.9 1.7 0.00 0.00 0.00 84 1017.5
20260506212108 52 242 0.0 1.7 0.00 0.00 0.00 84 1017.6
20260506211908 53 318 0.0 1.7 0.00 0.00 0.00 83 1017.6
20260506211708 53 147 0.9 1.7 0.00 0.00 0.00 83 1017.7
20260506211507 53 71 0.0 1.7 0.00 0.00 0.00 82 1017.5
20260506211107 53 66 0.0 1.7 0.00 0.00 0.00 81 1017.5
20260506210907 53 303 0.9 1.7 0.00 0.00 0.00 81 1017.6
20260506210707 54 325 0.0 1.7 0.00 0.00 0.00 79 1017.6
20260506210507 54 347 0.0 2.6 0.00 0.00 0.00 79 1017.4
20260506210308 54 11 0.0 2.6 0.00 0.00 0.00 79 1017.7
20260506210108 54 31 0.0 2.6 0.00 0.00 0.00 79 1017.5
20260506205907 54 61 0.0 2.6 0.00 0.00 0.00 79 1017.5
20260506205707 54 58 1.7 2.6 0.00 0.00 0.00 79 1017.6
20260506205507 53 42 1.7 1.7 0.00 0.00 0.00 81 1017.5
20260506205308 53 328 0.9 1.7 0.00 0.00 0.00 83 1017.5
20260506205108 53 44 0.0 1.7 0.00 0.00 0.00 83 1017.4
20260506204907 53 132 0.0 1.7 0.00 0.00 0.00 83 1017.6
20260506204708 54 180 0.0 1.7 0.00 0.00 0.00 82 1017.7
20260506204507 54 159 0.9 1.7 0.00 0.00 0.00 82 1017.5
20260506204307 54 143 0.9 1.7 0.00 0.00 0.00 81 1017.6
20260506204109 55 121 1.7 1.7 0.00 0.00 0.00 80 1017.4
20260506203908 55 87 0.0 0.9 0.00 0.00 0.00 80 1017.2
20260506203708 55 352 0.0 0.9 0.00 0.00 0.00 80 1017.5
20260506203507 55 227 0.0 0.9 0.00 0.00 0.00 79 1017.7
20260506203307 55 357 0.0 1.7 0.00 0.00 0.00 79 1017.5
20260506203108 55 304 0.0 1.7 0.00 0.00 0.00 79 1017.6
20260506202907 55 336 0.0 1.7 0.00 0.00 0.00 79 1017.5
20260506202707 56 205 0.0 1.7 0.00 0.00 0.00 78 1017.7
20260506202507 56 242 0.0 1.7 0.00 0.00 0.00 77 1017.6
20260506202307 57 159 0.0 1.7 0.00 0.00 0.00 76 1017.5
20260506202107 57 202 0.0 1.7 0.00 0.00 0.00 73 1017.6
20260506201907 57 58 0.0 1.7 0.00 0.00 0.00 72 1017.7
20260506201707 58 25 0.0 1.7 0.00 0.00 0.00 71 1017.4
20260506201507 58 45 1.7 1.7 0.00 0.00 0.00 71 1017.3
20260506201307 58 55 0.0 1.7 0.00 0.00 0.00 71 1017.5
20260506201108 58 44 0.0 1.7 0.00 0.00 0.00 71 1017.4
20260506200907 58 180 0.0 1.7 0.00 0.00 0.00 71 1017.3
20260506200707 58 35 0.0 1.7 0.00 0.00 0.00 71 1017.4
20260506200508 58 92 0.0 1.7 0.00 0.00 0.00 71 1017.4
20260506200308 58 100 0.0 1.7 0.00 0.00 0.00 71 1017.3
20260506200108 58 333 0.0 1.7 0.00 0.00 0.00 71 1017.3
20260506195908 59 59 0.0 1.7 0.00 0.00 0.00 70 1017.4
20260506195707 59 34 0.0 1.7 0.00 0.00 0.00 69 1017.4
20260506195507 59 32 0.0 1.7 0.00 0.00 0.00 70 1017.3
20260506195308 59 31 0.0 1.7 0.00 0.00 0.00 69 1017.4
20260506195107 59 348 0.0 1.7 0.00 0.00 0.00 69 1017.5
20260506194907 59 32 0.0 1.7 0.00 0.00 0.00 70 1017.4
20260506194708 59 104 0.0 2.6 0.00 0.00 0.00 70 1017.5
20260506194507 59 64 0.9 2.6 0.00 0.00 0.00 69 1017.2
20260506194309 59 29 0.0 2.6 0.00 0.00 0.00 69 1017.2
20260506194108 59 12 1.7 2.6 0.00 0.00 0.00 69 1017.3
20260506193908 59 28 0.9 2.6 0.00 0.00 0.00 68 1017.1
20260506193707 60 14 0.0 2.6 0.00 0.00 0.00 69 1017.3
20260506193508 60 65 0.0 2.6 0.00 0.00 0.00 68 1017.2
20260506193308 60 60 0.0 2.6 0.00 0.00 0.00 68 1017.3
20260506193108 60 58 0.0 2.6 0.00 0.00 0.00 68 1017.3
20260506192908 60 140 0.0 2.6 0.00 0.00 0.00 68 1017.2
20260506192708 60 56 0.9 3.5 0.00 0.00 0.00 68 1017.2
20260506192507 60 38 0.0 3.5 0.00 0.00 0.00 68 1017.4
20260506192307 60 45 0.9 3.5 0.00 0.00 0.00 68 1017.1
20260506192107 60 3 1.7 3.5 0.00 0.00 0.00 68 1017.0
20260506191907 60 44 1.7 3.5 0.00 0.00 0.00 68 1017.2
20260506191708 60 12 0.9 2.6 0.00 0.00 0.00 68 1017.0
20260506191507 60 38 1.7 2.6 0.00 0.00 0.00 68 1017.2
20260506191307 60 1 2.6 2.6 0.00 0.00 0.00 68 1017.0
20260506191107 61 58 0.0 2.6 0.00 0.00 0.00 68 1017.0
20260506190907 61 8 0.9 2.6 0.00 0.00 0.00 67 1016.6
20260506190707 61 73 2.6 2.6 0.00 0.00 0.00 67 1016.7
20260506190507 61 27 0.9 2.6 0.00 0.00 0.00 67 1016.7
20260506190307 61 13 1.7 2.6 0.00 0.00 0.00 67 1017.1
20260506190107 61 19 1.7 2.6 0.00 0.00 0.00 68 1017.1
20260506185907 61 23 0.9 3.5 0.00 0.00 0.00 68 1017.0
20260506185709 61 40 0.0 3.5 0.00 0.00 0.00 68 1016.7
20260506185507 61 17 1.7 3.5 0.00 0.00 0.00 68 1016.7
20260506185308 61 22 0.9 3.5 0.00 0.00 0.00 68 1016.8
20260506185108 61 50 0.9 3.5 0.00 0.00 0.00 67 1016.8
20260506184907 61 51 0.9 3.5 0.00 0.00 0.00 68 1016.6
20260506184707 62 58 0.0 3.5 0.00 0.00 0.00 68 1017.0
20260506184507 62 66 0.9 3.5 0.00 0.00 0.00 67 1016.6
20260506184307 62 13 1.7 3.5 0.00 0.00 0.00 66 1016.8
20260506184107 62 22 2.6 3.5 0.00 0.00 0.00 66 1016.6
20260506183907 62 20 1.7 3.5 0.00 0.00 0.00 66 1016.6
20260506183709 62 81 0.0 3.5 0.00 0.00 0.00 66 1016.5
20260506183509 62 42 2.6 3.5 0.00 0.00 0.00 66 1016.7
20260506183307 62 36 1.7 3.5 0.00 0.00 0.00 66 1016.3
20260506183108 62 34 1.7 3.5 0.00 0.00 0.00 66 1016.4
20260506182908 62 4 0.9 4.3 0.00 0.00 0.00 66 1016.4
20260506182707 63 10 1.7 4.3 0.00 0.00 0.00 66 1016.6
20260506182507 63 38 1.7 4.3 0.00 0.00 0.00 66 1016.4
20260506182308 63 31 0.9 4.3 0.00 0.00 0.00 65 1016.3
20260506182107 63 6 0.9 4.3 0.00 0.00 0.00 65 1016.2
20260506181908 63 73 1.7 4.3 0.00 0.00 0.00 66 1016.2
20260506181708 63 25 1.7 4.3 0.00 0.00 0.00 66 1016.1
20260506181508 63 16 3.5 4.3 0.00 0.00 0.00 66 1016.4
20260506181307 63 21 1.7 4.3 0.00 0.00 0.00 66 1016.3
20260506181107 63 23 1.7 3.5 0.00 0.00 0.00 66 1016.1
20260506180907 63 38 1.7 3.5 0.00 0.00 0.00 66 1016.2
20260506180707 64 7 1.7 4.3 0.00 0.00 0.00 65 1015.9
20260506180507 64 24 1.7 4.3 0.00 0.00 0.00 65 1016.1
20260506180307 64 12 1.7 4.3 0.00 0.00 0.00 65 1015.8
20260506180108 64 34 1.7 4.3 0.00 0.00 0.00 64 1016.0
20260506175907 64 38 3.5 4.3 0.00 0.00 0.00 64 1016.0
20260506175707 64 34 1.7 4.3 0.00 0.00 0.00 64 1016.1
20260506175507 64 26 3.5 3.5 0.00 0.00 0.00 64 1015.9
20260506175306 64 20 1.7 3.5 0.00 0.00 0.00 64 1015.8
20260506175105 64 8 1.7 3.5 0.00 0.00 0.00 64 1015.8
20260506174905 65 27 1.7 4.3 0.00 0.00 0.00 63 1015.7
20260506174705 65 21 1.7 4.3 0.00 0.00 0.00 63 1015.7
20260506174505 65 18 2.6 4.3 0.00 0.00 0.00 63 1015.6
20260506174305 65 20 0.9 5.2 0.00 0.00 0.00 63 1015.6
20260506174106 65 26 2.6 5.2 0.00 0.00 0.00 63 1015.5
20260506173905 65 310 0.0 5.2 0.00 0.00 0.00 63 1015.6
20260506173705 66 32 0.9 5.2 0.00 0.00 0.00 62 1015.6
20260506173505 66 0 1.7 5.2 0.00 0.00 0.00 62 1015.4
20260506173106 66 26 1.7 6.1 0.00 0.00 0.00 61 1015.4
20260506172905 66 66 0.0 6.1 0.00 0.00 0.00 61 1015.3
20260506172705 66 18 0.9 6.1 0.00 0.00 0.00 60 1015.4
20260506172506 67 25 2.6 6.1 0.00 0.00 0.00 61 1015.3
20260506172307 67 13 1.7 6.1 0.00 0.00 0.00 61 1015.4
20260506172105 67 11 2.6 5.2 0.00 0.00 0.00 60 1015.5
20260506171906 67 54 1.7 4.3 0.00 0.00 0.00 60 1015.5
20260506171705 67 27 1.7 5.2 0.00 0.00 0.00 60 1015.4
20260506171505 67 4 2.6 5.2 0.00 0.00 0.00 60 1015.4
20260506171305 67 339 1.7 5.2 0.00 0.00 0.00 60 1015.5
20260506171106 67 353 1.7 5.2 0.00 0.00 0.00 59 1015.3
20260506170905 68 23 1.7 5.2 0.00 0.00 0.00 59 1015.3
20260506170706 68 14 3.5 5.2 0.00 0.00 0.00 59 1015.2
20260506170505 68 336 1.7 5.2 0.00 0.00 0.00 58 1015.2
20260506170305 68 31 2.6 6.1 0.00 0.00 0.00 58 1015.1
20260506170106 69 45 2.6 6.1 0.00 0.00 0.00 57 1015.1
20260506165906 69 38 0.0 6.1 0.00 0.00 0.00 58 1015.2
20260506165705 69 60 0.9 6.1 0.00 0.00 0.00 57 1015.3
20260506165506 69 18 1.7 6.1 0.00 0.00 0.00 56 1015.2
20260506165306 70 11 2.6 4.3 0.00 0.00 0.00 56 1015.2
20260506165106 70 19 1.7 4.3 0.00 0.00 0.00 55 1015.0
20260506164906 70 11 1.7 5.2 0.00 0.00 0.00 55 1015.1
20260506164706 70 36 2.6 5.2 0.00 0.00 0.00 54 1015.1
20260506164506 70 7 1.7 5.2 0.00 0.00 0.00 53 1015.0
20260506164305 71 24 1.7 5.2 0.00 0.00 0.00 53 1015.1
20260506164106 71 81 1.7 5.2 0.00 0.00 0.00 53 1015.1
20260506163910 71 5 1.7 5.2 0.00 0.00 0.00 53 1015.1
20260506163705 71 76 0.9 6.1 0.00 0.00 0.00 52 1014.9
20260506163506 71 62 4.3 6.1 0.00 0.00 0.00 51 1015.2
20260506163306 72 29 2.6 6.1 0.00 0.00 0.00 50 1014.9
20260506163105 72 11 1.7 6.1 0.00 0.00 0.00 51 1014.8
20260506162905 72 5 1.7 6.1 0.00 0.00 0.00 50 1014.8
20260506162705 72 26 3.5 6.1 0.00 0.00 0.00 49 1015.0
20260506162506 72 356 2.6 6.1 0.00 0.00 0.00 49 1015.0
20260506162307 72 21 2.6 6.1 0.00 0.00 0.00 49 1014.8